Regional Weather Roundup
Issued by NWS Newport/Morehead, NC

Current Version | Previous Version | Text Only | Print | Product List | Glossary On
Versions: 1 2 3 4 5 6 7 8 9 10 11 12 13 14 15 16 17 18 19 20 21 22 23 24 25 26 27 28 29 30 31 32 33 34 35 36 37 38 39 40 41 42 43 44 45 46 47 48 49 50
000
ASUS42 KMHX 190425
RWRMHX
WEATHER ROUNDUP FOR EASTERN NORTH CAROLINA
NATIONAL WEATHER SERVICE NEWPORT/MOREHEAD CITY NC
1200 AM EDT THU APR 19 2018

NOTE: "FAIR" INDICATES FEW OR NO CLOUDS BELOW 12,000 FEET
WITH NO SIGNIFICANT WEATHER AND/OR OBSTRUCTIONS TO VISIBILITY

NCZ015>017-031-032-045>047-102-103-190500-
NORTH COAST

CITY           SKY/WX    TMP DP  RH WIND       PRES   REMARKS
EDENTON        FAIR      65  56  72 S6        29.74S
ELIZABETH CITY FAIR      65  56  72 S10       29.72F
KITTY HAWK     FAIR      62  53  74 SW6       29.74S
MANTEO         FAIR      61  55  80 SW10      29.76S

$$

NCZ045>047-081-094-103-104-190500-
CENTRAL COAST

CITY           SKY/WX    TMP DP  RH WIND       PRES   REMARKS
FRISCO         FAIR      67  57  70 SW20G31   29.79S

$$

NCZ095-097-098-100-101-190500-
SOUTHERN COAST

CITY           SKY/WX    TMP DP  RH WIND       PRES   REMARKS
BEAUFORT       FAIR      65  56  72 SW21G31   29.81F
CEDAR ISLAND   NOT AVBL
JACKSONVILLE   FAIR      67  52  58 SW10      29.79F
PINEY ISLAND   NOT AVBL
WILMINGTON     FAIR      68  53  58 SW14G22   29.83F


$$

NCZ011>013-027>030-043-044-078>080-089-090>093-098-190500-
COASTAL PLAIN

CITY           SKY/WX    TMP DP  RH WIND       PRES   REMARKS
AHOSKIE        FAIR      62  47  58 S5        29.70F
CLINTON        FAIR      67  49  52 S5        29.79S
ELIZABETHTOWN  FAIR      70  51  49 MISG      29.80F
GOLDSBORO      FAIR      67  48  50 S8        29.74F
GREENVILLE     FAIR      70  46  43 SW8       29.76F
HAVELOCK       CLEAR     67  55  65 SW14G23   29.80S
KENANSVILLE    FAIR      68  54  60 SW5       29.78F
KINSTON        FAIR      67  51  55 S14       29.76F
NEW BERN       FAIR      63  52  67 SW9       29.79S
RICHLANDS      FAIR      66  53  63 SW13      29.80S
ROCKY MOUNT    FAIR      70  44  39 SW13G21   29.72F
WASHINGTON     FAIR      67  50  53 SW10      29.74F
WHITEVILLE     FAIR      67  52  57 SW10      29.83S

$$

AMZ130-135-150-152-154-156-158-170-250-252-270-ANZ085-086-088-633-658-670-190500-
MARINE OBSERVATIONS

STATION/POSITION TIME  TEMP    WIND        PRES    WAVE   SWELL
                       AIR SEA DIR/SP/G            HT/PER HT/PER
                 (UTC) (F)     (DEG/KT/KT) (MB)    (FT/S) (FT/S)
CHESAPEAKE LIGHT NOT AVBL
64 E VA BEACH    0350   54 50  200/ 14/ 16 1007.3    3/ 7   2/ 7
DUCK             0400   63 49  190/ 10/ 12 1006.4
2 E DUCK         0400      49                N/A     2/15   2/15
OREGON INLET     0348   63 62  210/ 18/ 21 1007.7
13E OREGON INLT  0348      52                N/A     4/ 6   2/ 9
HATTERAS CG      0400   66 63  230/ 18/ 25 1008.6
DIAMOND BUOY     0410   69 64  230/ 21/ 27 1009.7
CAPE LOOKOUT     0400          230/ 14/ 18 1010.0
BEAUFORT LAB     0400   64 62  240/  9/ 16 1009.7
30 SE NEW RVR IN 0408   70 66  220/ 21/ 27 1009.9
30 SE NEW RVR IN 0400      66                N/A     9/ 7
27 SE WRIGHTSVLE 0408   68 64  220/ 25/ 35 1010.8
5 SE WRIGHTSVLE  0408   65 60  250/ 16/ 21 1010.0
225 S CAPE HAT   0410   72 72  210/ 21/ 27 1015.8
41 SE CHARLESTON 0410   72 67  220/ 23/ 29 1013.1

$$




USA.gov is the U.S. government's official web portal to all federal, state and local government web resources and services.